Scio, NY

12:28 PM EST on February 27, 2017 (GMT -0500)
Wellsville Municipal-Tarantine

Weather History for KELZ - November, 2014

Change the Weather History Date:

Friday, November 28, 2014

  Actual Average (KDSV) Record (KDSV)
Temperature  
Mean Temperature 22 °F -  
Max Temperature 27 °F 46 °F 68 °F (1988)
Min Temperature 18 °F 32 °F 12 °F (1951)
Degree Days  
Heating Degree Days 42    
Moisture  
Dew Point 13 °F    
Average Humidity 72    
Maximum Humidity 88    
Minimum Humidity 55    
Precipitation  
Precipitation 0.00 in - - ()
Sea Level Pressure  
Sea Level Pressure 30.16 in    
Wind  
Wind Speed 13 mph (WNW)    
Max Wind Speed 23 mph    
Max Gust Speed 33 mph    
Visibility 8 miles    
Events Snow    
Averages and records for this station are not official NWS values.
T = Trace of Precipitation, MM = Missing Value Source: NWS Daily Summary

Daily Weather History Graph

Daily Weather History Graph

Search for Another Location

Airport or City:

Trip Planner

Search our weather history database for the weather conditions in past years. The results will help you decide how hot, cold, wet, or windy it might be!

Date:

Astronomy

Nov. 28, 2014 Rise Set
Actual Time 7:17 AM EST 4:42 PM EST
Civil Twilight 6:46 AM EST 5:13 PM EST
Nautical Twilight 6:11 AM EST 5:47 PM EST
Astronomical Twilight 5:38 AM EST 6:21 PM EST
Moon 12:06 PM EST (11/28) 11:32 PM EST (11/28)
Length of Visible Light 10h 26m
Length of Day
9h 24m
Waxing Crescent, 42% of the Moon is Illuminated
Nov 28
Waxing Crescent
Nov 29
First Quarter
Dec 6
Full
Dec 14
Last Quarter
Dec 21
New

Hourly Weather History & Observations

Time (EST) Temp. Windchill Dew Point Humidity Pressure Visibility Wind Dir Wind Speed Gust Speed Precip Events Conditions
12:26 AM 27.0 °F 18.0 °F 21.0 °F 78% 30.00 in 2.5 mi WSW 9.2 mph - 0.00 in Snow Light Snow
12:31 AM 27.0 °F 18.0 °F 21.0 °F 78% 29.99 in 3.0 mi West 9.2 mph - 0.00 in Snow Light Snow
12:56 AM 27.0 °F 13.9 °F 21.9 °F 81% 30.09 in 10.0 mi WNW 18.4 mph - 0.00 in Snow Light Snow
1:00 AM 26.1 °F 12.0 °F 21.0 °F 81% 30.01 in 1.8 mi NNW 20.7 mph 28.8 mph 0.00 in Snow Light Snow
1:05 AM 24.1 °F 11.5 °F 19.9 °F 84% 30.02 in 1.0 mi North 15.0 mph 28.8 mph 0.00 in Snow Light Snow
1:12 AM 24.1 °F 13.7 °F 21.0 °F 88% 30.02 in 0.8 mi NNW 10.4 mph 25.3 mph 0.00 in Snow Light Snow
1:19 AM 24.1 °F 13.1 °F 21.0 °F 88% 30.03 in 1.2 mi North 11.5 mph 21.9 mph 0.00 in Snow Light Snow
1:26 AM 24.1 °F 12.0 °F 21.0 °F 88% 30.04 in 3.0 mi North 13.8 mph 23.0 mph 0.00 in Snow Light Snow
1:56 AM 24.1 °F 13.1 °F 21.0 °F 88% 30.14 in 5.0 mi NNW 11.5 mph 19.6 mph 0.00 in Snow Light Snow
2:18 AM 24.1 °F 11.5 °F 19.9 °F 84% 30.06 in 2.5 mi NW 15.0 mph 24.2 mph 0.00 in Snow Light Snow
2:26 AM 24.1 °F 10.6 °F 19.9 °F 84% 30.06 in 4.0 mi NW 17.3 mph - 0.00 in Snow Light Snow
2:36 AM 24.1 °F 12.0 °F 19.0 °F 81% 30.07 in 6.0 mi WNW 13.8 mph 23.0 mph 0.00 in Snow Light Snow
2:56 AM 21.9 °F 5.8 °F 16.0 °F 78% 30.17 in 6.0 mi NW 23.0 mph 33.4 mph 0.00 in Snow Light Snow
3:07 AM 21.9 °F 6.2 °F 15.1 °F 75% 30.09 in 9.0 mi NW 21.9 mph 31.1 mph 0.00 in   Overcast
3:48 AM 19.9 °F 5.2 °F 12.9 °F 74% 30.11 in 10.0 mi NW 17.3 mph 28.8 mph 0.00 in   Mostly Cloudy
3:56 AM 19.9 °F 8.6 °F 12.9 °F 74% 30.20 in 10.0 mi NW 10.4 mph 24.2 mph 0.00 in   Mostly Cloudy
4:56 AM 19.9 °F 9.3 °F 12.9 °F 74% 30.20 in 10.0 mi NNW 9.2 mph 19.6 mph N/A   Overcast
5:56 AM 19.0 °F 11.1 °F 14.0 °F 81% 30.22 in 4.0 mi NW 5.8 mph - 0.00 in Snow Light Snow
6:56 AM 19.0 °F 5.0 °F 12.9 °F 77% 30.24 in 5.0 mi NW 15.0 mph 20.7 mph 0.00 in Snow Light Snow
7:30 AM 19.0 °F 8.2 °F 12.9 °F 77% 30.15 in 9.0 mi NW 9.2 mph - 0.00 in Snow Light Snow
7:56 AM 19.0 °F 10.0 °F 14.0 °F 81% 30.25 in 9.0 mi NW 6.9 mph - 0.00 in Snow Light Snow
8:56 AM 19.9 °F 3.2 °F 8.1 °F 60% 30.26 in 10.0 mi WNW 23.0 mph 33.4 mph 0.00 in   Overcast
9:56 AM 19.9 °F 3.2 °F 8.1 °F 60% 30.27 in 10.0 mi WNW 23.0 mph 32.2 mph 0.00 in   Overcast
10:56 AM 21.0 °F 5.7 °F 7.0 °F 55% 30.26 in 10.0 mi WNW 19.6 mph 27.6 mph 0.00 in   Overcast
11:56 AM 21.0 °F 6.6 °F 8.1 °F 57% 30.25 in 9.0 mi WNW 17.3 mph - 0.00 in Snow Light Snow
12:56 PM 21.9 °F 7.8 °F 9.0 °F 58% 30.24 in 10.0 mi WNW 17.3 mph - 0.00 in   Overcast
1:56 PM 23.0 °F 12.4 °F 9.0 °F 55% 30.22 in 10.0 mi West 10.4 mph - N/A   Scattered Clouds
2:56 PM 21.0 °F 8.1 °F 9.0 °F 60% 30.23 in 10.0 mi West 13.8 mph - N/A   Partly Cloudy
3:56 PM 21.0 °F 9.9 °F 10.0 °F 63% 30.23 in 10.0 mi WNW 10.4 mph - N/A   Partly Cloudy
4:29 PM 19.9 °F 10.1 °F 10.0 °F 65% 30.13 in 10.0 mi WNW 8.1 mph - N/A   Mostly Cloudy
4:43 PM 19.0 °F 10.0 °F 8.1 °F 62% 30.14 in 10.0 mi WNW 6.9 mph - N/A   Scattered Clouds
4:56 PM 19.0 °F 9.0 °F 8.1 °F 62% 30.25 in 10.0 mi West 8.1 mph - N/A   Partly Cloudy
5:56 PM 19.9 °F 13.4 °F 9.0 °F 62% 30.24 in 10.0 mi West 4.6 mph - N/A   Overcast
6:14 PM 19.9 °F 11.1 °F 10.0 °F 65% 30.14 in 10.0 mi West 6.9 mph - N/A   Overcast
6:44 PM 19.9 °F 8.6 °F 9.0 °F 62% 30.14 in 10.0 mi West 10.4 mph 18.4 mph N/A   Overcast
6:56 PM 19.9 °F 11.1 °F 9.0 °F 62% 30.25 in 10.0 mi West 6.9 mph - N/A   Overcast
7:56 PM 19.0 °F 13.9 °F 9.0 °F 65% 30.25 in 10.0 mi WSW 3.5 mph - N/A   Scattered Clouds
8:56 PM 18.0 °F 9.8 °F 9.0 °F 68% 30.24 in 10.0 mi South 5.8 mph - N/A   Clear
9:56 PM 18.0 °F 7.7 °F 9.0 °F 68% 30.23 in 10.0 mi SW 8.1 mph - N/A   Partly Cloudy
10:56 PM 19.0 °F 11.1 °F 10.9 °F 71% 30.23 in 10.0 mi SW 5.8 mph - N/A   Mostly Cloudy
11:56 PM 19.0 °F 13.9 °F 10.9 °F 71% 30.24 in 10.0 mi SSW 3.5 mph - N/A   Mostly Cloudy